COSMOS 970 DEB, 64969

Orbit data source: Space-Track

COSMOS 970 DEB, 64969 is space debris in LEO originally from a launch on Wed, 21 Dec 1977 UTC launched from the Tyuratam Missile And Space Complex (TTMTR). Debris objects in space refer to the collection of defunct objects orbiting the Earth. Examples of debris include non-operational satellites, rocket bodies, and fragments generated from explosions, collisions, or faulty payload assembly.

Loading next visibility...
Identifier
64969, 1977-121CE
Orbit
LEO
Country
Flag of CISCIS
Related business
Manufacturer
Unknown
Mission
Spacecraft
Bus & Motor
Unknown
Mass
Unknown
Launch date (UTC)
1977-12-21 (48 years ago)
Launch vehicle
Unknown
Launch site
Tyuratam Missile And Space Complex (TTMTR)
Object type
Payload
Rocket body
Debris
Shape & HBR
Unknown shape, 0.1 m
Radar Cross Section
Small (<0.1 m²)

Expand to show TLE details & history
Last TLE update: 1 day ago

TLE from 1 day ago
0 COSMOS 970 DEB
1 64969U 77121CE  26170.58651141  .00000539  00000-0  53487-3 0  9996
2 64969  65.7945 291.4944 0102039 211.2459 148.2518 13.84177298633881
Epoch: 2026-06-19T14:04Z
TLE epoch observation values (Epoch: 2026-06-19T14:04:34.585Z)
Latitude
-0.00007°
Longitude
172.53691°
Altitude
1,014.893 km
Speed
7.313 km/s
True Right ascension
19h 25m 58s
True Declination
0° 00' 00"
Sunlit
Object was in full shadow at epoch
Visualization orbit readout
Latitude
Unknown
Longitude
Unknown
Altitude
Unknown
Speed
Unknown
Apparent Right ascension
Unknown
Apparent Declination
Unknown
Sunlit
N/A
Visualization observer readout
Local Sidereal Time
08:32:56
Azimuth
Unknown
Elevation
Unknown
Doppler factor
Unknown
Orbital elements
Apogee altitude
1,022.374 km
Perigee altitude
872.871 km
Semi-major axis
7,325.759 km
Eccentricity
0.0102
Inclination
65.7945°
RAAN
291.4944°
Arg. of periapsis
211.2459°
True anomaly
148.86044°
Mean anomaly
148.2518°
Eccentric anomaly
148.55678°
Mean motion
3.4615 °/min
Orbital period
104 mins
BSTAR
0.00053487
Loading maneuver chart data...
Computing Atmospheric mass density...
Loading historical data...
Loading historical data...
Loading historical data...
Loading historical data...
Loading historical data...
Loading historical data...
Loading historical data...

Documentation

Showing up to 5 results
|